BEIDOU-3 M1 (C19)

Last updated on Sat Apr 11 2026 00:03:32 GMT+0000 (Coordinated Universal Time)

1 43001U 17069A 26098.86571080 -.00000005 00000+0 00000+0 0 9995 2 43001 56.6337 65.3664 0012429 314.2981 45.5828 1.86231409 57318
UTC large
Height (km)
Speed (km/s)
/
Latitude / Longitude
Inclination (degrees)
Orbital Period (minutes)
Azimuth
Elevation
Range (km)
Doppler Factor

Next 0 passes for location: London (51.5072 / 0.1276)

Sorry there are no passes over London.